Eastsound, WA

7:50 PM PST on December 09, 2016 (GMT -0800)
Orcas Island

Weather History for KORS - January, 2013

Change the Weather History Date:

Sunday, January 13, 2013

  Actual Average (KFHR) Record (KFHR)
Temperature  
Mean Temperature 30 °F -  
Max Temperature 35 °F 43 °F 53 °F (2004)
Min Temperature 24 °F 35 °F 23 °F (2007)
Degree Days  
Heating Degree Days 36    
Moisture  
Dew Point 26 °F    
Average Humidity 84    
Maximum Humidity 100    
Minimum Humidity 70    
Precipitation  
Precipitation 0.00 in - - ()
Sea Level Pressure  
Sea Level Pressure 30.45 in    
Wind  
Wind Speed 0 mph (SSE)    
Max Wind Speed 5 mph    
Max Gust Speed -    
Visibility 10 miles    
Events      
Averages and records for this station are not official NWS values.
T = Trace of Precipitation, MM = Missing Value Source: NWS Daily Summary

Daily Weather History Graph

Daily Weather History Graph

Search for Another Location

Airport or City:

Trip Planner

Search our weather history database for the weather conditions in past years. The results will help you decide how hot, cold, wet, or windy it might be!

Date:

Astronomy

Jan. 13, 2013 Rise Set
Actual Time 8:00 AM PST 4:41 PM PST
Civil Twilight 7:24 AM PST 5:17 PM PST
Nautical Twilight 6:45 AM PST 5:56 PM PST
Astronomical Twilight 6:07 AM PST 6:34 PM PST
Moon 8:47 AM PST (1/13) 7:43 PM PST (1/13)
Length of Visible Light 9h 52m
Length of Day
8h 40m
Waxing Crescent, 6% of the Moon is Illuminated
Jan 13
Waxing Crescent
Jan 18
First Quarter
Jan 26
Full
Feb 3
Last Quarter
Feb 9
New

Hourly Weather History & Observations

Time (PST) Temp. Windchill Dew Point Humidity Pressure Visibility Wind Dir Wind Speed Gust Speed Precip Events Conditions
12:15 AM 28.4 °F - 23.0 °F 80% 30.44 in 10.0 mi Calm Calm - N/A   Clear
12:35 AM 26.6 °F - 23.0 °F 86% 30.44 in 10.0 mi Calm Calm - N/A   Clear
12:55 AM 26.6 °F - 23.0 °F 86% 30.44 in 10.0 mi Calm Calm - N/A   Clear
1:15 AM 26.6 °F - 24.8 °F 93% 30.44 in 10.0 mi Calm Calm - N/A   Clear
1:35 AM 24.8 °F - 23.0 °F 93% 30.44 in 10.0 mi Calm Calm - N/A   Clear
2:15 AM 24.8 °F - 23.0 °F 93% 30.45 in 10.0 mi Calm Calm - N/A   Clear
2:35 AM 24.8 °F - 24.8 °F 100% 30.45 in 10.0 mi Calm Calm - N/A   Clear
2:55 AM 28.4 °F - 24.8 °F 86% 30.44 in 10.0 mi Calm Calm - N/A   Clear
3:15 AM 26.6 °F - 24.8 °F 93% 30.45 in 10.0 mi Calm Calm - N/A   Clear
3:35 AM 26.6 °F - 24.8 °F 93% 30.44 in 10.0 mi Calm Calm - N/A   Clear
3:55 AM 26.6 °F - 24.8 °F 93% 30.44 in 10.0 mi Calm Calm - N/A   Clear
4:15 AM 26.6 °F - 24.8 °F 93% 30.44 in 10.0 mi Calm Calm - N/A   Mostly Cloudy
4:35 AM 26.6 °F - 24.8 °F 93% 30.44 in 10.0 mi Calm Calm - N/A   Mostly Cloudy
4:55 AM 26.6 °F - 24.8 °F 93% 30.44 in 10.0 mi Calm Calm - N/A   Clear
5:15 AM 26.6 °F - 24.8 °F 93% 30.43 in 10.0 mi Calm Calm - N/A   Clear
5:35 AM 26.6 °F - 24.8 °F 93% 30.44 in 10.0 mi Calm Calm - N/A   Partly Cloudy
5:55 AM 26.6 °F - 24.8 °F 93% 30.44 in 10.0 mi Calm Calm - N/A   Scattered Clouds
6:15 AM 26.6 °F - 24.8 °F 93% 30.44 in 10.0 mi Calm Calm - N/A   Scattered Clouds
6:35 AM 24.8 °F - 24.8 °F 100% 30.44 in 10.0 mi Calm Calm - N/A   Partly Cloudy
6:55 AM 24.8 °F - 24.8 °F 100% 30.45 in 10.0 mi Calm Calm - N/A   Clear
7:15 AM 24.8 °F - 24.8 °F 100% 30.46 in 10.0 mi Calm Calm - N/A   Clear
7:35 AM 26.6 °F - 26.6 °F 100% 30.45 in 10.0 mi Calm Calm - N/A   Mostly Cloudy
7:55 AM 24.8 °F - 24.8 °F 100% 30.45 in 10.0 mi Calm Calm - N/A   Partly Cloudy
8:15 AM 24.8 °F - 24.8 °F 100% 30.46 in 10.0 mi Calm Calm - N/A   Clear
8:35 AM 26.6 °F - 24.8 °F 93% 30.46 in 8.0 mi Calm Calm - N/A   Partly Cloudy
8:55 AM 26.6 °F - 26.6 °F 100% 30.47 in 8.0 mi Calm Calm - N/A   Mostly Cloudy
9:15 AM 26.6 °F - 26.6 °F 100% 30.47 in 9.0 mi Calm Calm - N/A   Mostly Cloudy
10:15 AM 32.0 °F - 28.4 °F 87% 30.47 in 10.0 mi Calm Calm - N/A   Clear
10:35 AM 32.0 °F - 26.6 °F 80% 30.47 in 10.0 mi Calm Calm - N/A   Clear
10:55 AM 32.0 °F - 28.4 °F 87% 30.46 in 10.0 mi Calm Calm - N/A   Clear
11:15 AM 33.8 °F - 28.4 °F 81% 30.45 in 10.0 mi Calm Calm - N/A   Clear
11:35 AM 35.6 °F - 28.4 °F 75% 30.46 in 10.0 mi Calm Calm - N/A   Clear
12:15 PM 35.6 °F 31.7 °F 26.6 °F 70% 30.45 in 10.0 mi NE 4.6 mph - N/A   Mostly Cloudy
12:35 PM 35.6 °F - 26.6 °F 70% 30.44 in 10.0 mi North - - N/A   Mostly Cloudy
12:55 PM 35.6 °F - 26.6 °F 70% 30.43 in 10.0 mi Calm Calm - N/A   Mostly Cloudy
1:15 PM 35.6 °F - 26.6 °F 70% 30.44 in 10.0 mi Calm Calm - N/A   Overcast
1:35 PM 35.6 °F - 26.6 °F 70% 30.44 in 10.0 mi Calm Calm - N/A   Overcast
2:15 PM 35.6 °F - 26.6 °F 70% 30.44 in 10.0 mi Calm Calm - N/A   Overcast
2:35 PM 35.6 °F - 26.6 °F 70% 30.44 in 10.0 mi Calm Calm - N/A   Overcast
2:55 PM 35.6 °F - 26.6 °F 70% 30.43 in 10.0 mi Calm Calm - N/A   Overcast
3:15 PM 35.6 °F - 26.6 °F 70% 30.43 in 10.0 mi Calm Calm - N/A   Overcast
3:35 PM 35.6 °F - 26.6 °F 70% 30.45 in 10.0 mi Calm Calm - N/A   Mostly Cloudy
3:55 PM 35.6 °F 32.8 °F 26.6 °F 70% 30.45 in 10.0 mi South 3.5 mph - N/A   Mostly Cloudy
4:15 PM 35.6 °F - 28.4 °F 75% 30.44 in 10.0 mi Calm Calm - N/A   Overcast
4:35 PM 33.8 °F - 28.4 °F 81% 30.45 in 10.0 mi Calm Calm - N/A   Overcast
4:55 PM 33.8 °F - 26.6 °F 75% 30.45 in 10.0 mi Calm Calm - N/A   Overcast
5:15 PM 33.8 °F - 28.4 °F 81% 30.45 in 10.0 mi Calm Calm - N/A   Overcast
5:55 PM 33.8 °F - 28.4 °F 81% 30.45 in 10.0 mi Calm Calm - N/A   Overcast
6:15 PM 33.8 °F - 28.4 °F 81% 30.44 in 10.0 mi Calm Calm - N/A   Overcast
6:35 PM 33.8 °F - 28.4 °F 81% 30.43 in 10.0 mi Calm Calm - N/A   Overcast
7:15 PM 33.8 °F - 28.4 °F 81% 30.46 in 10.0 mi Calm Calm - N/A   Overcast
7:55 PM 33.8 °F - 28.4 °F 81% 30.45 in 10.0 mi Calm Calm - N/A   Overcast
8:15 PM 33.8 °F - 28.4 °F 81% 30.46 in 10.0 mi Calm Calm - N/A   Overcast
8:35 PM 33.8 °F - 28.4 °F 81% 30.46 in 9.0 mi Calm Calm - N/A   Overcast
8:55 PM 33.8 °F - 28.4 °F 81% 30.46 in 10.0 mi Calm Calm - N/A   Overcast
9:15 PM 33.8 °F - 28.4 °F 81% 30.46 in 9.0 mi Calm Calm - N/A   Overcast
9:35 PM 35.6 °F - 28.4 °F 75% 30.45 in 10.0 mi Calm Calm - N/A   Overcast
9:55 PM 35.6 °F - 30.2 °F 81% 30.47 in 10.0 mi Calm Calm - N/A   Overcast
10:35 PM 35.6 °F 32.8 °F 28.4 °F 75% 30.46 in 10.0 mi South 3.5 mph - N/A   Overcast
10:55 PM 35.6 °F 32.8 °F 28.4 °F 75% 30.46 in 10.0 mi South 3.5 mph - N/A   Overcast
11:15 PM 35.6 °F - 30.2 °F 81% 30.46 in 10.0 mi Calm Calm - N/A   Overcast
11:35 PM 35.6 °F - 28.4 °F 75% 30.46 in 10.0 mi Calm Calm - N/A   Overcast
11:55 PM 35.6 °F - 28.4 °F 75% 30.46 in 10.0 mi Calm Calm - N/A   Overcast